Flag for Russia Weather past 2 weeks in Khabarovsk, Russia

Now
0 °F

Ice fog.


Feels Like: -8 °F
Forecast: -10 / 13 °F
Wind: 3 mph from Northeast

Location: Habarovsk

Current Time: Jan 25, 2015 at 2:03:48 PM

Latest Report: Jan 25, 2015 at 1:30 PM


Visibility: 2 mi

Pressure: 30.36 "Hg

Humidity: 84%

Dew point: -4 °F

Location of KhabarovskLocation

Historic Weather in Khabarovsk — Graph

°F

Khabarovsk temperature yesterday

Maximum temperature yesterday: 3 °F (at 3:30 PM)
Minimum temperature yesterday: -20 °F (at 6:30 AM)
Average temperature yesterday: -10 °F

Past Weeks' High & Low Weather Summary

 TemperatureHumidityPressure
High14 °F (Jan 13, 2:30 PM)92% (Jan 12, 4:30 AM)30.39 "Hg (Jan 12, 4:30 AM)
Low-20 °F (Jan 17, 2:00 AM)49% (Jan 15, 10:30 AM)29.80 "Hg (Jan 17, 12:30 PM)
Average-4 °F73%30.16 "Hg
* Reported Jan 10 12:00 Noon — Jan 25 12:30 PM, Khabarovsk, Weather by CustomWeather, © 2014

Note: Actual official high and low records may vary slightly from our data, if they occured in-between our weather recording intervals... More about our weather records

Advertising

Khabarovsk weather history for previous 24 hours

 ConditionsComfort  
Time TempWeatherWind HumidityBarometerVisibility
12:30 PM
Jan 25
-2 °FIce fog.No wind84%30.36 "Hg2 mi
12:00 PM-6 °FIce fog.1 mph92%30.36 "Hg2 mi
11:30 AM-8 °FIce fog.No wind84%30.39 "Hg2 mi
11:00 AM-9 °FIce fog.1 mph84%30.39 "Hg2 mi
10:30 AM-15 °FIce fog.1 mph91%30.39 "Hg2 mi
10:00 AM-17 °FIce fog.1 mph76%30.39 "Hg2 mi
9:30 AM-18 °FIce fog.3 mph83%30.39 "Hg2 mi
9:00 AM-18 °FIce fog.1 mph91%30.39 "Hg2 mi
8:30 AM-6 °FIce fog.No wind84%30.36 "Hg2 mi
8:00 AM-11 °FIce fog.1 mph84%30.36 "Hg2 mi
7:30 AM-9 °FIce fog.No wind84%30.36 "Hg2 mi
7:00 AM-9 °FIce fog.No wind84%30.36 "Hg3 mi
6:30 AM-11 °FIce fog.1 mph84%30.36 "Hg3 mi
6:00 AM-11 °FIce fog.1 mph91%30.36 "Hg3 mi
5:30 AM-9 °FIce fog.1 mph84%30.36 "Hg3 mi
5:00 AM-13 °FIce fog.No wind83%30.36 "Hg3 mi
4:30 AM-9 °FIce fog.No wind77%30.36 "Hg3 mi
4:00 AM-11 °FIce fog.No wind76%30.36 "Hg3 mi
3:30 AM-8 °FIce fog.No wind77%30.33 "Hg3 mi
3:00 AM-8 °FIce fog.1 mph77%30.33 "Hg3 mi
2:30 AM-6 °FIce fog.1 mph77%30.33 "Hg3 mi
2:00 AM-6 °FIce fog.3 mph84%30.33 "Hg3 mi
1:30 AM-6 °FIce fog.3 mph84%30.30 "Hg3 mi
1:00 AM-9 °FIce fog.3 mph77%30.33 "Hg3 mi
12:30 AM-6 °FIce fog.1 mph77%30.30 "Hg3 mi
12:00 AM-8 °FIce fog.1 mph84%30.30 "Hg3 mi
11:30 PM
Jan 24
-2 °FIce fog.3 mph84%30.30 "Hg3 mi
11:00 PM-4 °FIce fog.No wind77%30.30 "Hg3 mi
10:30 PM-6 °FClear.No wind77%30.30 "Hg4 mi
10:00 PM-6 °FClear.3 mph84%30.27 "Hg4 mi
9:30 PM-4 °FClear.1 mph84%30.27 "Hg4 mi
9:00 PM-2 °FClear.3 mph84%30.27 "Hg4 mi
8:30 PM-2 °FClear.1 mph77%30.27 "Hg4 mi
8:00 PM-2 °FPassing clouds.1 mph77%30.27 "Hg4 mi
7:30 PM-2 °FPassing clouds.1 mph84%30.27 "Hg4 mi
7:00 PM-2 °FPassing clouds.1 mph84%30.24 "Hg4 mi
6:30 PM0 °FPassing clouds.3 mph84%30.24 "Hg4 mi
6:00 PM0 °FPassing clouds.3 mph84%30.24 "Hg4 mi
5:30 PM1 °FPassing clouds.3 mph85%30.24 "Hg4 mi
5:00 PM1 °FPassing clouds.3 mph85%30.24 "Hg4 mi
4:30 PM1 °FIce fog.3 mph85%30.24 "Hg3 mi
4:00 PM1 °FIce fog.3 mph78%30.24 "Hg3 mi
3:30 PM3 °FIce fog.1 mph78%30.21 "Hg2 mi
3:00 PM0 °FIce fog.3 mph84%30.21 "Hg2 mi
2:30 PM-2 °FIce fog.1 mph84%30.21 "Hg2 mi
2:00 PM-4 °FIce fog.1 mph84%30.21 "Hg1 mi
Weather by CustomWeather, © 2014

See weather overviewHow to use our weather pages